TimeCEST,TemperatureF,Dew PointF,Humidity,Sea Level PressureIn,VisibilityMPH,Wind Direction,Wind SpeedMPH,Gust SpeedMPH,PrecipitationIn,Events,Conditions,WindDirDegrees,DateUTC
12:15 AM,48.2,46.4,93,29.89,5.0,North,11.2,-,N/A,Rain,Rain,360,2012-10-15 22:15:00
12:39 AM,46.4,46.4,100,29.86,3.1,North,8.9,-,N/A,Rain,Rain,360,2012-10-15 22:39:00
12:45 AM,46.4,46.4,100,29.89,3.1,North,11.2,-,N/A,Rain,Rain,350,2012-10-15 22:45:00
1:15 AM,46.4,46.4,100,29.89,3.1,North,6.7,-,N/A,Rain,Rain,360,2012-10-15 23:15:00
1:45 AM,46.4,46.4,100,29.89,3.1,North,8.9,-,N/A,Rain,Light Rain,360,2012-10-15 23:45:00
2:15 AM,46.4,46.4,100,29.89,3.1,North,8.9,-,N/A,Rain,Light Rain,360,2012-10-16 00:15:00
2:45 AM,46.4,46.4,100,29.89,3.1,North,6.7,-,N/A,Rain,Light Rain,360,2012-10-16 00:45:00
3:15 AM,46.4,46.4,100,29.86,3.7,North,6.7,-,N/A,Rain,Light Rain,10,2012-10-16 01:15:00
3:20 AM,46.4,44.6,93,29.86,5.0,North,6.7,-,N/A,,Overcast,360,2012-10-16 01:20:00
3:45 AM,-9999,-9999,N/A,-9999,6.2,North,6.7,-,N/A,,Overcast,360,2012-10-16 01:45:00
4:15 AM,46.4,46.4,100,29.86,5.0,North,8.9,-,N/A,,Overcast,350,2012-10-16 02:15:00
4:45 AM,46.4,46.4,100,29.86,5.0,North,8.9,-,N/A,,Overcast,350,2012-10-16 02:45:00
5:15 AM,46.4,46.4,100,29.83,5.0,North,6.7,-,N/A,,Overcast,360,2012-10-16 03:15:00
5:43 AM,46.4,46.4,100,29.83,3.7,NNW,6.7,-,N/A,Rain,Light Rain,340,2012-10-16 03:43:00
5:45 AM,46.4,44.6,93,29.83,3.7,North,6.7,-,N/A,Rain,Light Rain,360,2012-10-16 03:45:00
6:15 AM,46.4,44.6,93,29.83,3.7,NNW,8.9,-,N/A,Rain,Light Rain,340,2012-10-16 04:15:00
6:43 AM,46.4,44.6,93,29.83,3.7,North,8.9,-,N/A,Rain,Light Rain,350,2012-10-16 04:43:00
6:45 AM,-9999,-9999,N/A,-9999,6.2,NNW,8.9,-,N/A,,Overcast,340,2012-10-16 04:45:00
6:50 AM,-9999,-9999,N/A,-9999,6.2,NNW,8.9,-,N/A,,Mostly Cloudy,340,2012-10-16 04:50:00
7:15 AM,46.4,46.4,100,29.83,3.7,North,8.9,-,N/A,Rain,Light Rain,360,2012-10-16 05:15:00
7:45 AM,46.4,46.4,100,29.80,3.1,North,11.2,-,N/A,Rain,Light Rain,360,2012-10-16 05:45:00
8:09 AM,46.4,46.4,100,29.80,1.9,North,11.2,-,N/A,Rain,Rain,360,2012-10-16 06:09:00
8:15 AM,46.4,46.4,100,29.80,1.9,North,11.2,-,N/A,Rain,Rain,360,2012-10-16 06:15:00
8:45 AM,46.4,46.4,100,29.83,1.9,North,11.2,-,N/A,Rain,Rain,350,2012-10-16 06:45:00
9:00 AM,-9999,-9999,N/A,-9999,5.0,NNW,8.9,-,N/A,Rain,Light Rain,340,2012-10-16 07:00:00
9:15 AM,46.4,46.4,100,29.83,1.9,North,11.2,-,N/A,Rain,Rain,350,2012-10-16 07:15:00
9:45 AM,-9999,-9999,N/A,-9999,5.0,North,11.2,-,N/A,Rain,Light Rain,350,2012-10-16 07:45:00
10:15 AM,46.4,44.6,93,29.80,1.9,NNW,13.4,-,N/A,Rain,Rain,330,2012-10-16 08:15:00
10:45 AM,46.4,44.6,93,29.80,1.9,NNW,13.4,-,N/A,Rain,Rain,340,2012-10-16 08:45:00
11:15 AM,46.4,44.6,93,29.80,1.9,North,15.7,-,N/A,Rain,Rain,350,2012-10-16 09:15:00
11:45 AM,46.4,46.4,100,29.80,1.9,NNW,15.7,-,N/A,Rain,Rain,340,2012-10-16 09:45:00
12:15 PM,46.4,44.6,93,29.80,1.9,NNW,13.4,-,N/A,Rain,Rain,340,2012-10-16 10:15:00
12:45 PM,-9999,-9999,N/A,-9999,3.7,North,11.2,-,N/A,Rain,Light Rain,350,2012-10-16 10:45:00
1:15 PM,46.4,46.4,100,29.83,2.5,NW,11.2,-,N/A,Rain,Rain,320,2012-10-16 11:15:00
1:45 PM,46.4,44.6,93,29.83,2.5,NW,13.4,-,N/A,Rain,Light Rain,310,2012-10-16 11:45:00
2:15 PM,46.4,46.4,100,29.86,2.2,West,8.9,-,N/A,Rain,Rain,270,2012-10-16 12:15:00
2:45 PM,46.4,46.4,100,29.86,2.2,WNW,11.2,-,N/A,Rain,Rain,300,2012-10-16 12:45:00
3:15 PM,46.4,46.4,100,29.83,2.5,NW,11.2,-,N/A,Rain,Light Rain,310,2012-10-16 13:15:00
3:45 PM,-9999,-9999,N/A,-9999,6.2,NW,11.2,-,N/A,,Mostly Cloudy,310,2012-10-16 13:45:00
4:08 PM,46.4,44.6,93,29.89,6.2,West,11.2,-,N/A,,Mostly Cloudy,280,2012-10-16 14:08:00
4:15 PM,46.4,44.6,93,29.89,6.2,WNW,13.4,-,N/A,,Mostly Cloudy,300,2012-10-16 14:15:00
4:45 PM,46.4,44.6,93,29.89,6.2,West,11.2,-,N/A,,Mostly Cloudy,280,2012-10-16 14:45:00
5:15 PM,48.2,42.8,82,29.89,6.2,NW,13.4,-,N/A,,Mostly Cloudy,310,2012-10-16 15:15:00
5:45 PM,46.4,42.8,87,29.92,6.2,NW,11.2,-,N/A,,Mostly Cloudy,320,2012-10-16 15:45:00
6:15 PM,46.4,42.8,87,29.92,6.2,WNW,4.5,-,N/A,,Mostly Cloudy,300,2012-10-16 16:15:00
6:45 PM,-9999,-9999,N/A,-9999,6.2,Variable,4.5,-,N/A,,Mostly Cloudy,0,2012-10-16 16:45:00
7:15 PM,48.2,42.8,82,29.95,6.2,NW,8.9,-,N/A,,Mostly Cloudy,310,2012-10-16 17:15:00
8:15 PM,46.4,42.8,87,29.95,-9999.0,West,4.5,-,N/A,,Clear,270,2012-10-16 18:15:00
8:45 PM,46.4,42.8,87,29.98,-9999.0,West,4.5,-,N/A,,Clear,260,2012-10-16 18:45:00
8:57 PM,46.4,44.6,93,29.98,6.2,WSW,6.7,-,N/A,Rain,Light Rain,240,2012-10-16 18:57:00
9:15 PM,46.4,42.8,87,29.98,6.2,WSW,6.7,-,N/A,Rain,Light Rain,250,2012-10-16 19:15:00
9:45 PM,-9999,-9999,N/A,-9999,1.9,SSW,6.7,-,N/A,,Clear,210,2012-10-16 19:45:00
10:15 PM,46.4,44.6,93,30.01,-9999.0,SW,2.2,-,N/A,,Clear,230,2012-10-16 20:15:00
10:45 PM,46.4,44.6,93,30.01,-9999.0,SW,2.2,-,N/A,,Clear,220,2012-10-16 20:45:00
11:15 PM,46.4,44.6,93,30.01,-9999.0,South,2.2,-,N/A,,Clear,170,2012-10-16 21:15:00
11:45 PM,46.4,44.6,93,30.01,-9999.0,South,2.2,-,N/A,,Clear,180,2012-10-16 21:45:00